COSMOS 2251 DEB, 40230

Orbit data source: Space-Track

COSMOS 2251 DEB, 40230 is space debris in LEO originally from a launch on Wed, 16 Jun 1993 UTC launched from the Plesetsk Missile And Space Complex (PKMTR). The debris from Iridium 33, an American commercial communications satellite, has been tracked extensively since its accidental collision with the defunct Russian satellite Cosmos 2251 in 2009. This event, occurring at high speed in low Earth orbit (LEO), generated thousands of pieces of space debris, significantly increasing the risk of further collisions. The Iridium 33 debris cloud has impacted space traffic management and orbital debris mitigation strategies, making it a subject of ongoing study in space situational awareness.

Loading next visibility...
Identifier
40230, 1993-036BVK
Orbit
LEO
Country
Flag of CISCIS
Related business
Manufacturer
Unknown
Mission
Spacecraft
Bus & Motor
Unknown
Mass
Unknown
Launch date (UTC)
1993-06-16 (33 years ago)
Launch vehicle
Unknown
Launch site
Plesetsk Missile And Space Complex (PKMTR)
Object type
Payload
Rocket body
Debris
Shape & HBR
Unknown shape, 0.1 m
Radar Cross Section
Small (<0.1 m²)

Expand to show TLE details & history
Last TLE update: 1 day ago

TLE from 1 day ago
0 COSMOS 2251 DEB
1 40230U 93036BVK 26121.25538389  .00002408  00000-0  62537-3 0  9995
2 40230  74.0455 325.1319 0016841 350.4044 133.2826 14.50172364609935
Epoch: 2026-05-01T06:07Z
TLE epoch observation values (Epoch: 2026-05-01T06:07:45.168Z)
Latitude
53.1172°
Longitude
171.73382°
Altitude
741.629 km
Speed
7.485 km/s
True Right ascension
08h 11m 26s
True Declination
52° 57' 06"
Sunlit
Object was in daylight at epoch
Visualization orbit readout
Latitude
Unknown
Longitude
Unknown
Altitude
Unknown
Speed
Unknown
Apparent Right ascension
Unknown
Apparent Declination
Unknown
Sunlit
N/A
Visualization observer readout
Local Sidereal Time
23:51:51
Azimuth
Unknown
Elevation
Unknown
Doppler factor
Unknown
Orbital elements
Apogee altitude
734.652 km
Perigee altitude
710.735 km
Semi-major axis
7,100.83 km
Eccentricity
0.00168
Inclination
74.0455°
RAAN
325.1319°
Arg. of periapsis
350.4044°
True anomaly
133.42289°
Mean anomaly
133.2826°
Eccentric anomaly
133.35276°
Mean motion
3.62727 °/min
Orbital period
99.25 mins
BSTAR
0.00062537
Loading maneuver chart data...
Computing Atmospheric mass density...
Loading historical data...
Loading historical data...
Loading historical data...
Loading historical data...
Loading historical data...
Loading historical data...
Loading historical data...

Documentation

Showing up to 5 results
|